TimeCST,TemperatureF,Dew PointF,Humidity,Sea Level PressureIn,VisibilityMPH,Wind Direction,Wind SpeedMPH,Gust SpeedMPH,PrecipitationIn,Events,Conditions,WindDirDegrees,DateUTC
12:25 AM,66.2,66.2,100,29.89,1.0,South,8.1,-,N/A,,Overcast,190,2013-02-23 06:25:00
12:44 AM,66.2,66.2,100,29.89,2.5,SSW,10.4,-,N/A,,Overcast,200,2013-02-23 06:44:00
12:51 AM,66.9,66.9,100,29.89,3.0,SSW,9.2,-,N/A,,Overcast,200,2013-02-23 06:51:00
12:59 AM,66.2,66.2,100,29.88,3.0,SSW,9.2,-,N/A,,Overcast,200,2013-02-23 06:59:00
1:31 AM,66.2,66.2,100,29.87,3.0,SSW,11.5,-,N/A,,Overcast,200,2013-02-23 07:31:00
1:51 AM,66.9,66.9,100,29.86,3.0,SSW,10.4,-,N/A,,Mostly Cloudy,200,2013-02-23 07:51:00
2:51 AM,66.0,66.0,100,29.86,3.0,SSW,9.2,-,N/A,,Mostly Cloudy,210,2013-02-23 08:51:00
3:17 AM,66.2,66.2,100,29.86,3.0,West,8.1,-,N/A,,Overcast,280,2013-02-23 09:17:00
3:23 AM,66.2,66.2,100,29.86,2.5,West,9.2,-,N/A,,Overcast,260,2013-02-23 09:23:00
3:31 AM,66.2,66.2,100,29.86,3.0,WNW,6.9,-,N/A,,Overcast,300,2013-02-23 09:31:00
3:44 AM,59.0,59.0,100,29.87,1.8,NNW,13.8,20.7,N/A,,Overcast,330,2013-02-23 09:44:00
3:51 AM,57.9,57.9,100,29.87,0.8,NNW,11.5,20.7,N/A,,Overcast,330,2013-02-23 09:51:00
4:07 AM,57.2,57.2,100,29.87,1.0,NNW,9.2,-,N/A,,Mist,340,2013-02-23 10:07:00
4:51 AM,55.9,55.9,100,29.88,1.5,NNW,8.1,-,N/A,,Overcast,340,2013-02-23 10:51:00
5:05 AM,55.4,55.4,100,29.88,2.5,North,9.2,-,N/A,,Overcast,350,2013-02-23 11:05:00
5:51 AM,55.9,55.9,100,29.90,2.5,North,6.9,-,N/A,,Overcast,350,2013-02-23 11:51:00
6:03 AM,55.4,55.4,100,29.91,3.0,NNW,8.1,-,0.00,Rain,Light Rain,340,2013-02-23 12:03:00
6:18 AM,55.4,55.4,100,29.90,5.0,North,8.1,-,0.00,,Overcast,10,2013-02-23 12:18:00
6:33 AM,55.4,55.4,100,29.91,6.0,North,6.9,-,0.00,,Overcast,350,2013-02-23 12:33:00
6:51 AM,55.9,55.9,100,29.91,4.0,Variable,6.9,-,0.01,Rain,Light Rain,0,2013-02-23 12:51:00
7:05 AM,57.2,57.2,100,29.91,5.0,NNE,5.8,-,0.00,Rain,Light Rain,30,2013-02-23 13:05:00
7:33 AM,55.4,55.4,100,29.92,7.0,NE,4.6,-,0.00,,Overcast,40,2013-02-23 13:33:00
7:46 AM,57.2,55.4,94,29.92,8.0,NNE,6.9,-,0.00,,Overcast,30,2013-02-23 13:46:00
7:51 AM,57.0,55.9,96,29.92,7.0,NNE,6.9,-,0.00,Rain,Light Rain,20,2013-02-23 13:51:00
8:07 AM,55.4,55.4,100,29.93,1.8,Variable,3.5,-,0.01,Rain,Heavy Rain,0,2013-02-23 14:07:00
8:23 AM,57.2,57.2,100,29.93,3.0,NE,5.8,-,0.17,Rain,Light Rain,40,2013-02-23 14:23:00
8:31 AM,57.2,57.2,100,29.94,7.0,NNE,5.8,-,0.17,Rain,Light Rain,30,2013-02-23 14:31:00
8:39 AM,57.2,57.2,100,29.93,7.0,NE,5.8,-,0.17,Rain,Light Rain,50,2013-02-23 14:39:00
8:43 AM,57.2,57.2,100,29.93,6.0,NE,4.6,-,0.17,,Overcast,50,2013-02-23 14:43:00
8:51 AM,57.0,57.0,100,29.93,5.0,NE,4.6,-,0.17,,Overcast,40,2013-02-23 14:51:00
9:15 AM,57.2,57.2,100,29.91,6.0,NE,4.6,-,N/A,,Overcast,40,2013-02-23 15:15:00
9:26 AM,57.2,57.2,100,29.91,7.0,NE,5.8,-,N/A,,Overcast,50,2013-02-23 15:26:00
9:51 AM,57.0,57.0,100,29.91,6.0,Variable,4.6,-,N/A,,Overcast,0,2013-02-23 15:51:00
10:06 AM,57.2,57.2,100,29.91,8.0,North,3.5,-,N/A,,Overcast,360,2013-02-23 16:06:00
10:16 AM,57.2,57.2,100,29.91,9.0,NNE,5.8,-,N/A,,Overcast,20,2013-02-23 16:16:00
10:51 AM,59.0,57.9,96,29.91,10.0,NNE,4.6,-,N/A,,Mostly Cloudy,20,2013-02-23 16:51:00
11:03 AM,57.2,57.2,100,29.92,10.0,North,6.9,-,N/A,,Overcast,350,2013-02-23 17:03:00
11:44 AM,57.2,57.2,100,29.94,2.5,Variable,4.6,-,0.01,Rain,Rain,0,2013-02-23 17:44:00
11:51 AM,57.0,57.0,100,29.94,3.0,Calm,Calm,-,0.02,Rain,Rain,0,2013-02-23 17:51:00
12:02 PM,57.2,57.2,100,29.95,1.8,NNE,3.5,-,0.04,Rain,Heavy Rain,30,2013-02-23 18:02:00
12:18 PM,57.2,57.2,100,29.94,2.5,Calm,Calm,-,0.13,Rain,Rain,0,2013-02-23 18:18:00
12:28 PM,57.2,57.2,100,29.94,3.0,NW,6.9,-,0.15,Rain,Light Rain,320,2013-02-23 18:28:00
12:34 PM,57.2,55.4,94,29.93,2.5,NNW,6.9,-,0.15,Rain,Light Rain,330,2013-02-23 18:34:00
12:47 PM,57.2,57.2,100,29.93,3.0,Variable,4.6,-,0.16,Rain,Light Rain,0,2013-02-23 18:47:00
12:51 PM,57.0,57.0,100,29.91,3.0,North,6.9,-,0.17,Rain,Rain,10,2013-02-23 18:51:00
1:01 PM,57.2,57.2,100,29.91,3.0,Variable,3.5,-,0.01,Rain,Light Rain,0,2013-02-23 19:01:00
1:46 PM,55.4,55.4,100,29.87,2.5,NE,5.8,-,0.03,Rain,Light Rain,50,2013-02-23 19:46:00
1:51 PM,55.9,55.9,100,29.87,4.0,NE,4.6,-,0.03,Rain,Light Rain,50,2013-02-23 19:51:00
2:51 PM,57.0,57.0,100,29.83,7.0,East,8.1,-,0.02,,Mostly Cloudy,100,2013-02-23 20:51:00
3:51 PM,59.0,57.9,96,29.86,9.0,ESE,3.5,-,N/A,,Mostly Cloudy,110,2013-02-23 21:51:00
4:51 PM,57.9,57.0,97,29.89,5.0,NNW,5.8,-,N/A,,Overcast,330,2013-02-23 22:51:00
5:14 PM,57.2,57.2,100,29.90,5.0,NNW,11.5,-,N/A,,Overcast,330,2013-02-23 23:14:00
5:51 PM,57.0,55.9,96,29.91,3.0,NNW,4.6,-,N/A,,Overcast,340,2013-02-23 23:51:00
6:07 PM,55.4,55.4,100,29.87,2.5,NNE,4.6,-,0.00,Rain,Light Rain,20,2013-02-24 00:07:00
6:20 PM,55.4,55.4,100,29.91,3.0,NNW,8.1,-,0.00,Rain,Light Rain,330,2013-02-24 00:20:00
6:28 PM,57.2,55.4,94,29.91,4.0,NNW,10.4,-,0.00,,Overcast,340,2013-02-24 00:28:00
6:51 PM,57.0,55.9,96,29.90,4.0,Calm,Calm,-,0.00,,Overcast,0,2013-02-24 00:51:00
7:09 PM,55.4,55.4,100,29.93,4.0,NNW,5.8,-,N/A,,Overcast,340,2013-02-24 01:09:00
7:51 PM,57.0,55.9,96,29.93,4.0,Variable,3.5,-,N/A,,Overcast,0,2013-02-24 01:51:00
8:37 PM,57.2,55.4,94,29.94,5.0,Calm,Calm,-,N/A,,Overcast,0,2013-02-24 02:37:00
8:51 PM,57.0,55.9,96,29.94,5.0,North,4.6,-,N/A,,Overcast,350,2013-02-24 02:51:00
9:39 PM,55.4,55.4,100,29.95,5.0,Calm,Calm,-,N/A,,Overcast,0,2013-02-24 03:39:00
9:51 PM,57.0,55.9,96,29.95,5.0,North,4.6,-,N/A,,Overcast,360,2013-02-24 03:51:00
10:26 PM,55.4,55.4,100,29.94,4.0,North,5.8,-,N/A,,Overcast,360,2013-02-24 04:26:00
10:34 PM,55.4,55.4,100,29.94,3.0,Variable,6.9,-,N/A,,Overcast,0,2013-02-24 04:34:00
10:51 PM,55.9,55.9,100,29.94,3.0,North,5.8,-,N/A,,Overcast,360,2013-02-24 04:51:00
11:51 PM,55.9,55.0,97,29.94,4.0,North,8.1,-,N/A,,Overcast,10,2013-02-24 05:51:00